Retour au catalogue

SATCOM 3 DEB

LostHEO
NORAD 38689·DEBRIS·🇺🇸 United States

Lancé Dec 7, 1979 depuis Cape Canaveral Space Force Station

Loading…

Prochains Passages (prochaines 24 heures)

TLE

PériméSource: Space-Track

Époque: Feb 5, 2024, 05:35 UTC

1 38689U 79101Y   24036.23304997 -.00000006  00000-0  00000+0 0  9990
2 38689   7.7549 237.4647 4768373 184.4405 168.8615  1.80999123104085

Suivez SATCOM 3 DEB en temps réel avec AllMySat

Download on the App Store